15:36
Airports
History
Links
Donate
Help keep this website running!
PayPal
Bitcoin
This page is community maintained. The information is intended for PC simulator navigation or reference.
Always use approved charts for navigation.
SSCE
Aeroclube
Aeroclube (SSCE)
Bagé, Rio Grande do Sul, Brazil (96402)
4
Lat/Lng:31° 19' 40" S / 54° 8' 5" W
-31.327778 / -54.134722
Elevation:722'ft / 220mMSL
ID / ICAO:SSCE
Runways:1
Longest:01-19
Grass 628m / 2,059ft
Nearby Weather15:00 GMT 2018-02-20
Nearby weather at SBBG, Comandante Gustavo Kraemer located 4.5 nautical miles from SSCE
Altimeter: 29.65
Visibility: 6.2 statute miles
Wind: 9 knots (from 160°)
Temp: 27°c / 81°f
Humidity: 69.8%

METAR: SBBG 201500Z 16009KT 9999 SCT010 BKN017 27/21 Q1004

(Powered by phpweather)
Runway 01 / 19
Dimensions:627.6 x 50m 2059' x 164'ft
Surface:Grass
Runway 01 [A]Runway 19 [B]
Heading:357°TH 177°TH
Lat:
Lng:
31° 19' 50.26"S
54° 8' 4.45"W
31° 19' 29.74"S
54° 8' 5.55"W
User Notes and Comments
31° 19' 40" S / 54° 8' 5" W
Distance To
Airport ID:
Nearby Airports
4 Aeromis 2.8 NM
SJXA NNW 332°
(U) Comandante Gustavo Kraemer 4.5 NM
SBBG ( WX ) SSE 163°
(U) Ana Paula 28.2 NM
SIAP S 174°
(U) Candiota 28.6 NM
SSIO ESE 113°
4 Refugio 34.4 NM
SSRQ NW 325°
(C) Dom Pedrito 38.9 NM
SSDP NW 306°
(C) Vichadero 41.5 NM
SUVO SW 223°
VFR Chart
Flight Planning at SkyVector.com